This is the latest recevied weather packets stored in our database for station/object DM1HF-13. If no packets are shown the sender has not sent any weather packets the latest 10 day(s).
| Time | Temp. | Humidity | Pressure | Rain* | Wind** | Luminosity | Snow |
|---|---|---|---|---|---|---|---|
| 1777887917 | 21.67° C | 46% | 1015.8 hPa | 0 mm | - | 500 W/m² | - |
| 1777887617 | 21.67° C | 46% | 1015.9 hPa | 0 mm | - | 537 W/m² | - |
| 1777887317 | 22.22° C | 47% | 1016 hPa | 0 mm | - | 553 W/m² | - |
| 1777887017 | 21.67° C | 46% | 1016 hPa | 0 mm | - | 534 W/m² | - |
| 1777886717 | 21.67° C | 46% | 1016 hPa | 0 mm | - | 551 W/m² | - |
| 1777886417 | 21.11° C | 46% | 1016.1 hPa | 0 mm | - | 557 W/m² | - |
| 1777886117 | 21.11° C | 46% | 1016.1 hPa | 0 mm | - | 542 W/m² | - |
| 1777885817 | 21.11° C | 47% | 1016.1 hPa | 0 mm | - | 561 W/m² | - |
| 1777885517 | 20.56° C | 49% | 1016.1 hPa | 0 mm | - | 657 W/m² | - |
| 1777885217 | 21.11° C | 46% | 1016 hPa | 0 mm | - | 285 W/m² | - |
| 1777884917 | 21.11° C | 47% | 1016.1 hPa | 0 mm | - | 542 W/m² | - |
| 1777884617 | 21.11° C | 48% | 1016 hPa | 0 mm | - | 336 W/m² | - |
| 1777884317 | 21.11° C | 46% | 1016.1 hPa | 0 mm | - | 367 W/m² | - |
| 1777884017 | 20.56° C | 47% | 1016 hPa | 0 mm | - | 383 W/m² | - |
| 1777883717 | 21.11° C | 46% | 1016 hPa | 0 mm | - | 515 W/m² | - |
| 1777883417 | 21.11° C | 47% | 1016 hPa | 0 mm | - | 705 W/m² | - |
| 1777883117 | 20.56° C | 49% | 1016 hPa | 0 mm | - | 414 W/m² | - |
| 1777882817 | 20° C | 50% | 1016 hPa | 0 mm | - | 494 W/m² | - |
| 1777882517 | 19.44° C | 51% | 1016 hPa | 0 mm | - | 643 W/m² | - |
| 1777882217 | 18.89° C | 52% | 1015.9 hPa | 0 mm | - | 543 W/m² | - |
| 1777881917 | 18.89° C | 52% | 1015.9 hPa | 0 mm | - | 366 W/m² | - |
| 1777881617 | 18.89° C | 54% | 1016 hPa | 0 mm | - | 308 W/m² | - |
| 1777881317 | 18.33° C | 54% | 1015.9 hPa | 0 mm | - | 364 W/m² | - |
| 1777881017 | 18.33° C | 57% | 1016 hPa | 0 mm | - | 463 W/m² | - |
| 1777880717 | 17.78° C | 58% | 1016 hPa | 0 mm | - | 424 W/m² | - |
* Rain latest hour (hover to see other rain measurements)
** Current wind speed in m/s (hover to see current wind gust speed)